Regional Weather Roundup
Issued by NWS

Home | Current Version | Previous Version | Graphics & Text | Print | Product List | Glossary On
Versions: 1 2 3 4 5 6 7 8 9 10 11 12 13 14 15 16 17 18 19 20 21 22 23 24 25 26 27 28 29 30 31 32 33 34 35 36 37 38 39 40 41 42 43 44 45 46 47 48 49 50
000
ASUS43 KBIS 200002
RWRND

NORTH DAKOTA REGIONAL WEATHER ROUNDUP
NATIONAL WEATHER SERVICE BISMARCK ND
700 PM CDT SAT AUG 19 2017

NOTE: "FAIR" INDICATES FEW OR NO CLOUDS BELOW 12,000 FEET WITH NO
SIGNIFICANT WEATHER AND/OR OBSTRUCTIONS TO VISIBILITY.


NDZ001>003-009>011-017-200100-
NORTHWEST NORTH DAKOTA

CITY           SKY/WX    TMP DP  RH WIND       PRES   REMARKS
WILLISTON      SUNNY     78  43  28 NW22G30   29.84R
6HR MIN TEMP:  78; 6HR MAX TEMP:  87;

MINOT          SUNNY     83  51  33 W24G33    29.71R
MINOT AFB      SUNNY     83  51  32 NW21G30   29.70R
$$

NDZ018>021-031>035-040>046-200100-
SOUTHWEST NORTH DAKOTA

CITY           SKY/WX    TMP DP  RH WIND       PRES   REMARKS
BISMARCK       MOSUNNY   86  64  47 SW5       29.74R
6HR MIN TEMP:  81; 6HR MAX TEMP:  87;

DICKINSON      MOSUNNY   79  49  34 NW14      29.83R
GARRISON         N/A     82  51  34 NW20      29.74R
6HR MIN TEMP:  79; 6HR MAX TEMP:  88;

HETTINGER ARPT CLOUDY    83  45  26 NW14      29.85S
$$

NDZ004>008-012>016-024-026-027-054-200100-
NORTHEAST NORTH DAKOTA

CITY           SKY/WX    TMP DP  RH WIND       PRES   REMARKS
GRAND FORKS    MOSUNNY   82  63  52 S16       29.71S
GRND FRKS AFB  SUNNY     81  60  48 S12G21    29.72S
DEVILS LAKE    SUNNY     82  63  52 S13       29.69F
$$

NDZ022-023-025-028>030-036>039-047>053-200100-
SOUTHEAST NORTH DAKOTA

CITY           SKY/WX    TMP DP  RH WIND       PRES   REMARKS
FARGO          MOSUNNY   78  62  57 S15G23    29.76S
6HR MIN TEMP:  78; 6HR MAX TEMP:  83;

JAMESTOWN      MOSUNNY   77  64  64 S9        29.74S
$$





USA.gov is the U.S. government's official web portal to all federal, state and local government web resources and services.